When you browse on this site, cookies collect data to enhance your experience and personalize the content and advertising you see.
Visit our Privacy Policy to learn more. By continuing to use the site, you agree to this use of cookies and data.
  • In Lithuania
  • List of Countries
  • For 7 days
  • Water Temperature
  • Weather Map
  • Weather Widgets
  • user-avatar
    Login

    Hourly Weather Mbandaka

    Today, 29 May, Friday

    Time Temperature Precipitation Wind Pressure Humidity
    00:00 +23°C° 0 mm 0 mps 730 mmHg 94%
    01:00 +23°C° 0 mm 0 mps 730 mmHg 94%
    02:00 +22°C° 0 mm 0 mps 730 mmHg 95%
    03:00 +22°C° 0 mm 0 mps 730 mmHg 95%
    04:00 +22°C° 0 mm 0 mps 730 mmHg 96%
    05:00 +23°C° 0.2 mm 0 mps 730 mmHg 95%
    06:00 +23°C° 0.2 mm 0 mps 731 mmHg 94%
    07:00 +24°C° 0.2 mm 0 mps 731 mmHg 93%
    08:00 +26°C° 0.2 mm 0 mps 732 mmHg 82%
    09:00 +29°C° 0.2 mm 0 mps 732 mmHg 71%
    10:00 +31°C° 0.2 mm 0 mps 732 mmHg 61%
    11:00 +32°C° 0.1 mm 0 mps 731 mmHg 56%
    12:00 +33°C° 0.1 mm 0 mps 731 mmHg 51%
    13:00 +34°C° 0.1 mm 0 mps 730 mmHg 47%
    14:00 +34°C° 1 mm 1 mps 729 mmHg 57%
    15:00 +31°C° 1 mm 1 mps 729 mmHg 67%
    16:00 +29°C° 1 mm 2 mps 728 mmHg 77%
    17:00 +28°C° 0.8 mm 1 mps 728 mmHg 82%
    18:00 +27°C° 0.8 mm 1 mps 729 mmHg 86%
    19:00 +26°C° 0.8 mm 1 mps 729 mmHg 91%
    20:00 +25°C° 3 mm 1 mps 730 mmHg 93%
    21:00 +25°C° 3 mm 1 mps 730 mmHg 95%
    22:00 +25°C° 3 mm 2 mps 731 mmHg 97%
    23:00 +25°C° 0.7 mm 1 mps 731 mmHg 97%

    Tomorrow, 30 May, Saturday

    Time Temperature Precipitation Wind Pressure Humidity
    00:00 +24°C° 0.7 mm 1 mps 731 mmHg 97%
    01:00 +24°C° 0.7 mm 1 mps 730 mmHg 97%
    02:00 +24°C° 0.1 mm 1 mps 730 mmHg 96%
    03:00 +24°C° 0.1 mm 1 mps 730 mmHg 95%
    04:00 +24°C° 0.1 mm 1 mps 730 mmHg 94%
    05:00 +24°C° 0.2 mm 1 mps 730 mmHg 93%
    06:00 +24°C° 0.2 mm 1 mps 731 mmHg 93%
    07:00 +22°C° 0.2 mm 0 mps 731 mmHg 93%
    08:00 +26°C° 0 mm 1 mps 731 mmHg 85%
    09:00 +28°C° 0 mm 1 mps 731 mmHg 77%
    10:00 +29°C° 0 mm 2 mps 732 mmHg 70%
    11:00 +31°C° 0 mm 1 mps 731 mmHg 63%
    12:00 +32°C° 0 mm 1 mps 730 mmHg 57%
    13:00 +32°C° 0 mm 0 mps 730 mmHg 51%
    14:00 +33°C° 0 mm 1 mps 729 mmHg 54%
    15:00 +32°C° 0 mm 1 mps 729 mmHg 56%
    16:00 +32°C° 0 mm 1 mps 729 mmHg 58%
    17:00 +30°C° 0 mm 1 mps 729 mmHg 64%
    18:00 +26°C° 0 mm 0 mps 729 mmHg 70%
    19:00 +25°C° 0 mm 0 mps 730 mmHg 76%
    20:00 +26°C° 0.2 mm 1 mps 730 mmHg 79%
    21:00 +26°C° 0.2 mm 1 mps 731 mmHg 82%
    22:00 +26°C° 0.2 mm 2 mps 731 mmHg 85%
    23:00 +25°C° 0.1 mm 1 mps 731 mmHg 88%

    Day after tomorrow, 31 May, Sunday

    Time Temperature Precipitation Wind Pressure Humidity
    00:00 +24°C° 0.1 mm 1 mps 731 mmHg 91%
    01:00 +22°C° 0.1 mm 0 mps 731 mmHg 94%
    02:00 +22°C° 0 mm 0 mps 730 mmHg 93%
    03:00 +22°C° 0 mm 0 mps 730 mmHg 92%
    04:00 +24°C° 0 mm 1 mps 730 mmHg 91%
    05:00 +24°C° 0.2 mm 1 mps 731 mmHg 91%
    06:00 +24°C° 0.2 mm 1 mps 731 mmHg 92%
    07:00 +25°C° 0.2 mm 1 mps 732 mmHg 92%
    08:00 +26°C° 0 mm 1 mps 732 mmHg 86%
    09:00 +28°C° 0 mm 1 mps 732 mmHg 80%
    10:00 +29°C° 0 mm 1 mps 733 mmHg 75%
    11:00 +29°C° 1.3 mm 1 mps 732 mmHg 77%
    12:00 +30°C° 1.3 mm 1 mps 731 mmHg 79%
    13:00 +30°C° 1.3 mm 1 mps 730 mmHg 81%
    14:00 +30°C° 0.1 mm 1 mps 730 mmHg 74%
    15:00 +31°C° 0.1 mm 1 mps 730 mmHg 67%
    16:00 +30°C° 0.1 mm 0 mps 730 mmHg 60%
    17:00 +28°C° 0 mm 0 mps 730 mmHg 67%
    18:00 +29°C° 0 mm 1 mps 730 mmHg 73%
    19:00 +27°C° 0 mm 1 mps 730 mmHg 80%
    20:00 +27°C° 0 mm 1 mps 731 mmHg 81%
    21:00 +27°C° 0 mm 1 mps 731 mmHg 82%
    22:00 +26°C° 0 mm 1 mps 731 mmHg 83%
    23:00 +26°C° 0.1 mm 1 mps 731 mmHg 84%

    1 June, Monday

    Time Temperature Precipitation Wind Pressure Humidity
    00:00 +24°C° 0.1 mm 0 mps 731 mmHg 85%
    01:00 +24°C° 0.1 mm 0 mps 731 mmHg 86%
    02:00 +23°C° 0.3 mm 0 mps 731 mmHg 88%
    03:00 +23°C° 0.3 mm 0 mps 731 mmHg 90%
    04:00 +25°C° 0.3 mm 1 mps 731 mmHg 92%
    05:00 +23°C° 0.1 mm 0 mps 731 mmHg 91%
    06:00 +24°C° 0.1 mm 0 mps 732 mmHg 91%
    07:00 +24°C° 0.1 mm 0 mps 732 mmHg 90%
    08:00 +26°C° 0.2 mm 0 mps 732 mmHg 82%
    09:00 +27°C° 0.2 mm 0 mps 733 mmHg 75%
    10:00 +31°C° 0.2 mm 1 mps 733 mmHg 67%
    11:00 +32°C° 1.3 mm 1 mps 732 mmHg 63%
    12:00 +33°C° 1.3 mm 1 mps 731 mmHg 60%
    13:00 +32°C° 1.3 mm 0 mps 730 mmHg 57%
    14:00 +33°C° 0.2 mm 1 mps 730 mmHg 56%
    15:00 +33°C° 0.2 mm 1 mps 730 mmHg 56%
    16:00 +33°C° 0.2 mm 1 mps 729 mmHg 56%
    17:00 +31°C° 0.5 mm 1 mps 729 mmHg 65%
    18:00 +29°C° 0.5 mm 1 mps 730 mmHg 73%
    19:00 +27°C° 0.5 mm 1 mps 730 mmHg 82%
    20:00 +26°C° 0.2 mm 1 mps 730 mmHg 84%
    21:00 +26°C° 0.2 mm 1 mps 730 mmHg 87%
    22:00 +25°C° 0.2 mm 1 mps 731 mmHg 89%
    23:00 +25°C° 0 mm 1 mps 731 mmHg 90%

    2 June, Tuesday

    Time Temperature Precipitation Wind Pressure Humidity
    00:00 +25°C° 0 mm 1 mps 730 mmHg 91%
    01:00 +24°C° 0 mm 1 mps 730 mmHg 92%
    02:00 +24°C° 0 mm 1 mps 730 mmHg 93%
    03:00 +24°C° 0 mm 1 mps 730 mmHg 93%
    04:00 +22°C° 0 mm 0 mps 730 mmHg 94%
    05:00 +23°C° 0 mm 0 mps 730 mmHg 92%
    06:00 +23°C° 0 mm 0 mps 731 mmHg 90%
    07:00 +24°C° 0 mm 0 mps 731 mmHg 88%
    08:00 +26°C° 0.3 mm 0 mps 732 mmHg 81%
    09:00 +28°C° 0.3 mm 0 mps 732 mmHg 73%
    10:00 +30°C° 0.3 mm 0 mps 732 mmHg 65%
    11:00 +30°C° 1.2 mm 0 mps 732 mmHg 63%
    12:00 +31°C° 1.2 mm 0 mps 731 mmHg 62%
    13:00 +31°C° 1.2 mm 0 mps 730 mmHg 60%
    14:00 +31°C° 0.2 mm 0 mps 730 mmHg 60%
    15:00 +30°C° 0.2 mm 0 mps 729 mmHg 61%
    16:00 +30°C° 0.2 mm 0 mps 729 mmHg 61%
    17:00 +30°C° 0.5 mm 1 mps 729 mmHg 70%
    18:00 +28°C° 0.5 mm 1 mps 729 mmHg 78%
    19:00 +26°C° 0.5 mm 1 mps 730 mmHg 87%
    20:00 +26°C° 0.2 mm 1 mps 730 mmHg 89%
    21:00 +23°C° 0.2 mm 0 mps 730 mmHg 90%
    22:00 +23°C° 0.2 mm 0 mps 730 mmHg 92%
    23:00 +25°C° 0 mm 1 mps 730 mmHg 92%

    3 June, Wednesday

    Time Temperature Precipitation Wind Pressure Humidity
    00:00 +25°C° 0 mm 1 mps 730 mmHg 92%
    01:00 +24°C° 0 mm 1 mps 730 mmHg 92%
    02:00 +24°C° 0.2 mm 1 mps 730 mmHg 94%
    03:00 +24°C° 0.2 mm 1 mps 730 mmHg 95%
    04:00 +24°C° 0.2 mm 1 mps 730 mmHg 96%
    05:00 +24°C° 0.4 mm 1 mps 730 mmHg 96%
    06:00 +24°C° 0.4 mm 1 mps 730 mmHg 95%
    07:00 +25°C° 0.4 mm 1 mps 731 mmHg 95%
    08:00 +27°C° 0 mm 1 mps 731 mmHg 86%
    09:00 +29°C° 0 mm 1 mps 731 mmHg 76%
    10:00 +31°C° 0 mm 1 mps 732 mmHg 67%
    11:00 +31°C° 1.3 mm 1 mps 731 mmHg 68%
    12:00 +32°C° 1.3 mm 1 mps 731 mmHg 69%
    13:00 +30°C° 1.3 mm 0 mps 730 mmHg 70%
    14:00 +30°C° 1.6 mm 1 mps 730 mmHg 77%
    15:00 +28°C° 1.6 mm 1 mps 729 mmHg 84%
    16:00 +26°C° 1.6 mm 2 mps 729 mmHg 91%
    17:00 +25°C° 1 mm 2 mps 730 mmHg 93%
    18:00 +25°C° 1 mm 2 mps 730 mmHg 95%
    19:00 +24°C° 1 mm 2 mps 731 mmHg 96%
    20:00 +24°C° 0 mm 2 mps 731 mmHg 96%
    21:00 +23°C° 0 mm 2 mps 731 mmHg 96%
    22:00 +23°C° 0 mm 2 mps 731 mmHg 97%
    23:00 +23°C° 0 mm 1 mps 731 mmHg 96%
    Show more